Flag for Cuba Weather past 2 weeks in Holguín, Cuba

Now
72 °F

Fog.


Feels Like: 67 °F
Forecast: 73 / 87 °F
Wind: 2 mph from North

Location: Holguin Civ / Mil


UV Index: 7 (High)

Visibility: 4 mi


Pressure: 29.95 "Hg

Humidity: 94%

Dew point: 70 °F

Location of HolguínLocation

Historic Weather in Holguín

°F

Holguín temperature yesterday

Maximum temperature yesterday: 90 °F (at 1:52 PM)
Minimum temperature yesterday: 68 °F (at 4:51 AM)
Average temperature yesterday: 77 °F

Past Weeks' High & Low Weather Summary

 TemperatureHumidityPressure
High93 °F (Apr 9, 1:50 PM)94% (Apr 12, 5:50 AM)30.15 "Hg (Apr 12, 5:50 AM)
Low68 °F (Apr 18, 6:51 AM)26% (Apr 12, 1:50 PM)29.83 "Hg (Apr 14, 4:50 PM)
Average79 °F71%29.98 "Hg
* Reported Apr 9 12:51 AM — Apr 24 12:50 AM, Holguín, Weather by CustomWeather, © 2014

Note: Actual official high and low records may vary slightly from our data, if they occured in-between our weather recording intervals... More about our weather records

Advertising

Historic Weather Conditions — Data for Previous 24 hours

 ConditionsComfort  
Time TempWeatherWind HumidityBarometerVisibility
12:50 AM
Apr 24
73 °FPartly cloudy.No wind89%29.95 "Hg5 mi
11:51 PM
Apr 23
73 °FPartly cloudy.1 mph89%29.98 "Hg5 mi
10:51 PM75 °FPartly cloudy.3 mph83%29.98 "Hg5 mi
9:50 PM75 °FScattered showers. Partly cloudy.3 mph89%N/A4 mi
8:50 PM75 °FLight rain. Passing clouds.12 mph89%29.95 "Hg3 mi
7:51 PM79 °FLight rain. Broken clouds.3 mph74%29.92 "Hg4 mi
6:53 PM77 °FLight rain. Partly sunny.9 mph89%N/A4 mi
6:04 PM77 °FLight rain. Partly sunny.10 mph83%29.89 "Hg3 mi
5:52 PM77 °FRain. Partly sunny.12 mph83%29.89 "Hg2 mi
4:52 PM86 °FScattered showers. Partly sunny.9 mph55%29.86 "Hg5 mi
3:52 PM88 °FScattered showers. Partly sunny.7 mph49%29.86 "Hg5 mi
2:51 PM88 °FScattered showers. Partly sunny.5 mph46%29.89 "Hg5 mi
1:52 PM90 °FScattered showers. Partly sunny.6 mph43%29.92 "Hg5 mi
12:51 PM88 °FPartly sunny.6 mph46%29.95 "Hg6 mi
11:52 AM86 °FPartly sunny.6 mph49%29.95 "HgN/A
10:54 AM86 °FScattered clouds.3 mph52%29.95 "HgN/A
9:50 AM81 °FPartly sunny.2 mph70%29.95 "Hg6 mi
8:50 AM77 °FPartly sunny.5 mph79%29.95 "Hg6 mi
7:52 AM72 °FPartly sunny.3 mph88%29.95 "Hg5 mi
6:53 AM68 °FFog.2 mph88%29.92 "Hg4 mi
5:50 AM68 °FFog.3 mph88%29.89 "Hg4 mi
4:51 AM68 °FFog.2 mph88%29.89 "Hg4 mi
3:50 AM70 °FClear.No wind88%29.89 "Hg5 mi
2:50 AM70 °FClear.No wind88%29.89 "Hg6 mi
Weather by CustomWeather, © 2014

See weather overview